K5HAS Weather Reports


Display with metric or nautical units.
time (UTC)temp
F
wind
direction
speed
MPH
gust
MPH
rain 1hr
in
rain 24hr
in
rain mn
in
humidity
%
barometer
mb
20260507163817 66 3 11.0 18.0 0.00 0.00 0.00 85 1014.5
20260507163319 66 20 11.0 18.0 0.00 0.00 0.00 85 1014.5
20260507162818 66 10 10.0 16.0 0.00 0.00 0.00 86 1014.5
20260507162318 66 11 10.0 16.0 0.00 0.00 0.00 86 1014.5
20260507162049 66 16 11.0 17.0 0.00 0.00 0.00 86 1014.5
20260507161318 66 11 12.0 17.0 0.00 0.00 0.00 86 1014.3
20260507160816 65 1 12.0 17.0 0.00 0.00 0.00 86 1014.3
20260507160316 65 11 12.0 21.0 0.00 0.00 0.00 86 1014.3
20260507155816 65 28 13.0 21.0 0.00 0.00 0.00 86 1014.0
20260507154816 65 5 11.0 18.0 0.00 0.00 0.00 86 1014.0
20260507154303 65 36 10.0 18.0 0.00 0.00 0.00 86 1014.0
20260507153747 65 4 11.0 18.0 0.00 0.00 0.00 86 1014.0
20260507153248 65 90 13.0 21.0 0.00 0.00 0.00 86 1014.0
20260507152749 66 19 13.0 21.0 0.00 0.00 0.00 86 1013.6
20260507152516 66 30 13.0 21.0 0.00 0.00 0.00 86 1013.6
20260507151747 66 11 12.0 21.0 0.00 0.00 0.00 86 1013.6
20260507151248 65 22 11.0 20.0 0.00 0.00 0.00 86 1013.6
20260507150744 65 17 11.0 19.0 0.00 0.00 0.00 85 1013.6
20260507150244 65 15 11.0 19.0 0.00 0.00 0.00 85 1013.6
20260507145743 65 8 11.0 17.0 0.00 0.00 0.00 85 1013.6
20260507145244 65 11 10.0 19.0 0.00 0.00 0.00 85 1013.6
20260507144243 66 8 14.0 20.0 0.00 0.00 0.00 85 1013.4
20260507143745 66 337 15.0 22.0 0.00 0.00 0.00 85 1013.4
20260507143239 66 18 14.0 24.0 0.00 0.00 0.00 85 1013.4
20260507142222 66 12 13.0 23.0 0.00 0.00 0.00 85 1013.5
20260507141713 66 19 12.0 21.0 0.00 0.00 0.00 85 1013.5
20260507141206 66 11 12.0 21.0 0.00 0.00 0.00 85 1013.9
20260507140657 66 339 12.0 20.0 0.00 0.00 0.00 85 1013.9
20260507140148 66 7 13.0 20.0 0.00 0.00 0.00 85 1013.9
20260507135643 66 16 12.0 20.0 0.00 0.00 0.00 85 1013.7
20260507135358 66 11 11.0 20.0 0.00 0.00 0.00 85 1013.7
20260507134622 66 19 12.0 20.0 0.00 0.00 0.00 85 1013.7
20260507134330 66 20 12.0 19.0 0.00 0.00 0.00 85 1013.1
20260507133606 66 25 12.0 19.0 0.00 0.00 0.00 85 1013.1
20260507133107 66 14 11.0 18.0 0.00 0.00 0.00 85 1013.1
20260507132606 66 16 11.0 18.0 0.00 0.00 0.00 85 1012.9
20260507132106 66 12 11.0 18.0 0.00 0.00 0.00 85 1012.9
20260507131608 66 15 11.0 21.0 0.00 0.00 0.00 85 1012.9
20260507131107 66 26 11.0 21.0 0.00 0.00 0.00 85 1012.4
20260507130107 66 13 13.0 21.0 0.00 0.00 0.00 85 1012.4
20260507125831 66 7 12.0 23.0 0.00 0.00 0.00 85 1012.4
20260507125054 66 355 12.0 23.0 0.00 0.00 0.00 85 1012.4
20260507124553 66 7 13.0 20.0 0.00 0.00 0.00 85 1012.4
20260507124053 66 16 13.0 20.0 0.00 0.00 0.00 85 1012.4
20260507123553 66 0 12.0 20.0 0.00 0.00 0.00 85 1012.4
20260507123351 66 9 11.0 18.0 0.00 0.00 0.00 85 1012.4
20260507122553 66 31 11.0 18.0 0.00 0.00 0.00 84 1012.1
20260507122054 66 17 10.0 16.0 0.00 0.00 0.00 85 1012.1
20260507121554 66 23 10.0 15.0 0.00 0.00 0.00 85 1012.1
20260507121042 66 24 10.0 15.0 0.00 0.00 0.00 85 1012.5
20260507120539 66 18 8.0 15.0 0.00 0.00 0.00 85 1012.5
20260507120246 66 359 8.0 13.0 0.00 0.00 0.00 85 1012.5
20260507115516 66 13 9.0 14.0 0.00 0.00 0.00 84 1012.6
20260507115009 66 18 9.0 14.0 0.00 0.00 0.00 84 1012.6
20260507114500 66 28 9.0 14.0 0.00 0.00 0.00 84 1012.6
20260507114212 66 359 7.0 14.0 0.00 0.00 0.00 84 1012.6
20260507113442 66 9 7.0 14.0 0.00 0.00 0.00 84 1012.6
20260507112932 66 3 7.0 14.0 0.00 0.00 0.00 84 1011.9
20260507112426 66 353 8.0 14.0 0.00 0.00 0.00 84 1011.9
20260507111916 66 23 8.0 14.0 0.00 0.00 0.00 84 1011.9
20260507111404 66 10 8.0 13.0 0.00 0.00 0.00 84 1011.8
20260507110859 66 11 8.0 14.0 0.00 0.00 0.00 84 1011.8
20260507110353 66 7 9.0 14.0 0.00 0.00 0.00 84 1011.8
20260507105842 66 13 9.0 14.0 0.00 0.00 0.00 84 1011.5
20260507105606 66 7 8.0 13.0 0.00 0.00 0.00 84 1011.5
20260507104826 66 3 7.0 13.0 0.00 0.00 0.00 84 1011.5
20260507104319 66 5 8.0 17.0 0.00 0.00 0.00 84 1011.9
20260507103810 66 24 9.0 17.0 0.00 0.00 0.00 84 1011.9
20260507103300 66 27 9.0 17.0 0.00 0.00 0.00 84 1011.9
20260507102746 66 12 9.0 17.0 0.00 0.00 0.00 84 1011.7
20260507102236 66 9 10.0 15.0 0.00 0.00 0.00 84 1011.7
20260507101948 66 340 10.0 15.0 0.00 0.00 0.00 84 1011.7
20260507101224 66 1 9.0 16.0 0.00 0.00 0.00 84 1011.4
20260507100946 66 3 9.0 16.0 0.00 0.00 0.00 84 1011.4
20260507100204 66 347 9.0 14.0 0.00 0.00 0.00 84 1011.4
20260507095653 66 358 9.0 16.0 0.00 0.00 0.00 84 1011.4
20260507095139 66 90 9.0 16.0 0.00 0.00 0.00 84 1011.4
20260507094629 66 359 8.0 13.0 0.00 0.00 0.00 84 1011.4
20260507094346 66 90 8.0 13.0 0.00 0.00 0.00 84 1011.2
20260507093611 66 357 7.0 11.0 0.00 0.00 0.00 84 1011.2
20260507093331 67 24 7.0 11.0 0.00 0.00 0.00 84 1011.2
20260507092555 66 18 8.0 14.0 0.00 0.00 0.00 84 1010.9
20260507092045 66 9 9.0 14.0 0.00 0.00 0.00 84 1010.9
20260507091547 67 28 8.0 13.0 0.00 0.00 0.00 84 1010.9
20260507091029 66 7 7.0 12.0 0.00 0.00 0.00 84 1011.2
20260507090531 66 22 7.0 12.0 0.00 0.00 0.00 84 1011.2
20260507090250 66 3 8.0 12.0 0.00 0.00 0.00 84 1011.2
20260507085531 66 25 9.0 14.0 0.00 0.00 0.00 84 1011.1
20260507085028 67 26 8.0 16.0 0.00 0.00 0.00 84 1011.1
20260507084532 67 347 8.0 16.0 0.00 0.00 0.00 84 1011.1
20260507084028 67 20 8.0 16.0 0.00 0.00 0.00 84 1010.9
20260507083530 67 13 10.0 16.0 0.00 0.00 0.00 84 1010.9
20260507083027 67 358 10.0 16.0 0.00 0.00 0.00 84 1010.9
20260507082515 67 353 9.0 16.0 0.00 0.00 0.00 84 1011.1
20260507081959 67 353 10.0 16.0 0.00 0.00 0.00 84 1011.1
20260507081457 67 5 10.0 16.0 0.00 0.00 0.00 84 1011.1
20260507080957 67 357 9.0 16.0 0.00 0.00 0.00 84 1011.2
20260507080457 67 15 9.0 16.0 0.00 0.00 0.00 84 1011.2
20260507075456 67 22 9.0 16.0 0.00 0.00 0.00 83 1011.2
20260507075225 67 12 10.0 17.0 0.00 0.00 0.00 83 1011.2
20260507074721 67 354 10.0 17.0 0.00 0.00 0.00 83 1011.2
20260507074225 67 351 10.0 16.0 0.00 0.00 0.00 83 1010.9
20260507073453 67 3 10.0 17.0 0.00 0.00 0.00 84 1010.9
20260507072943 67 356 9.0 17.0 0.00 0.00 0.00 84 1011.2
20260507072433 68 353 10.0 19.0 0.00 0.00 0.00 83 1011.2
20260507071925 68 349 11.0 19.0 0.00 0.00 0.00 83 1011.2
20260507071419 68 19 10.0 17.0 0.00 0.00 0.00 83 1011.4
20260507070907 68 9 10.0 19.0 0.00 0.00 0.00 83 1011.4
20260507070401 68 20 10.0 19.0 0.00 0.00 0.00 83 1011.4
20260507065846 68 11 9.0 15.0 0.00 0.00 0.00 83 1011.4
20260507065606 68 13 9.0 14.0 0.00 0.00 0.00 83 1011.4
20260507064823 68 16 9.0 15.0 0.00 0.00 0.00 83 1011.4
20260507064312 68 357 9.0 15.0 0.00 0.00 0.00 83 1011.5
20260507063807 68 346 9.0 14.0 0.00 0.00 0.00 83 1011.5
20260507063257 68 16 9.0 13.0 0.00 0.00 0.00 83 1011.5
20260507062747 69 347 10.0 16.0 0.00 0.00 0.00 83 1011.4
20260507062241 69 344 11.0 16.0 0.00 0.00 0.00 83 1011.4
20260507061727 69 2 10.0 16.0 0.00 0.00 0.00 83 1011.4
20260507061221 69 16 9.0 15.0 0.00 0.00 0.00 83 1011.4
20260507060711 69 359 9.0 15.0 0.00 0.00 0.00 83 1011.4
20260507060205 69 7 8.0 15.0 0.00 0.00 0.00 83 1011.4
20260507055658 69 351 8.0 13.0 0.00 0.00 0.00 83 1011.2
20260507055151 69 5 8.0 15.0 0.00 0.00 0.00 83 1011.2
20260507054912 69 4 9.0 15.0 0.00 0.00 0.00 83 1011.2
20260507054151 69 11 9.0 16.0 0.00 0.00 0.00 83 1010.9
20260507053647 69 29 9.0 16.0 0.00 0.00 0.00 83 1010.9
20260507053408 69 11 10.0 16.0 0.00 0.00 0.00 83 1010.9
20260507052649 69 22 9.0 15.0 0.00 0.00 0.00 83 1011.1
20260507052147 69 7 9.0 15.0 0.00 0.00 0.00 83 1011.1
20260507051647 70 357 9.0 15.0 0.00 0.00 0.00 83 1011.1
20260507051417 70 26 6.0 11.0 0.00 0.00 0.00 83 1010.9
20260507050917 70 19 6.0 11.0 0.00 0.00 0.00 83 1010.9
20260507050147 70 18 6.0 14.0 0.00 0.00 0.00 83 1010.9
20260507045634 70 8 6.0 14.0 0.00 0.00 0.00 83 1010.9
20260507045131 70 354 8.0 14.0 0.00 0.00 0.00 83 1010.9
20260507044613 70 357 9.0 17.0 0.00 0.00 0.00 83 1010.9
20260507044107 70 13 10.0 17.0 0.00 0.00 0.00 83 1011.0
20260507043558 70 348 10.0 17.0 0.00 0.00 0.00 83 1011.0
20260507043048 71 351 10.0 16.0 0.00 0.00 0.00 83 1011.0
20260507042546 71 14 10.0 16.0 0.00 0.00 0.00 83 1010.8
20260507042040 71 3 9.0 16.0 0.00 0.00 0.00 83 1010.8
20260507041525 71 4 9.0 16.0 0.00 0.00 0.00 83 1010.8
20260507041232 71 356 10.0 17.0 0.00 0.00 0.00 83 1010.8
20260507040518 71 8 9.0 17.0 0.00 0.00 0.00 83 1010.8
20260507040230 71 5 10.0 17.0 0.00 0.00 0.00 83 1010.5
20260507035454 71 12 11.0 17.0 0.00 0.00 0.00 83 1010.5
20260507034943 71 21 11.0 18.0 0.00 0.00 0.00 83 1010.5
20260507034438 72 353 10.0 16.0 0.00 0.00 0.00 83 1010.3
20260507033933 72 359 10.0 18.0 0.00 0.00 0.00 83 1010.3
20260507033432 72 17 10.0 18.0 0.00 0.00 0.00 83 1010.3
20260507032434 72 24 11.0 17.0 0.00 0.00 0.00 84 1010.3
20260507031932 73 16 10.0 17.0 0.00 0.00 0.00 84 1010.3
20260507031432 73 17 9.0 16.0 0.00 0.00 0.00 84 1009.9
20260507030931 73 19 9.0 16.0 0.00 0.00 0.00 84 1009.9
20260507030430 73 8 9.0 16.0 0.00 0.00 0.00 84 1009.9
20260507025930 73 9 10.0 16.0 0.00 0.00 0.00 84 1009.8
20260507025430 74 349 10.0 16.0 0.00 0.00 0.00 84 1009.8
20260507024929 74 350 10.0 17.0 0.00 0.00 0.00 84 1009.8
20260507024651 74 36 10.0 17.0 0.00 0.00 0.00 84 1009.6
20260507023924 74 344 11.0 17.0 0.00 0.00 0.00 84 1009.6
20260507023423 74 352 10.0 17.0 0.00 0.00 0.00 84 1009.6
20260507023157 74 347 10.0 16.0 0.00 0.00 0.00 84 1009.3
20260507022423 75 349 11.0 16.0 0.00 0.00 0.00 84 1009.3
20260507021421 75 8 9.0 16.0 0.00 0.00 0.00 84 1008.8
20260507020924 76 7 10.0 15.0 0.00 0.00 0.00 84 1008.8
20260507020423 78 340 7.0 15.0 0.00 0.00 0.00 85 1008.8
20260507015921 79 324 2.0 15.0 0.00 0.00 0.00 85 1008.2
20260507015420 79 117 2.0 5.0 0.00 0.00 0.00 85 1008.2
20260507015145 79 117 3.0 5.0 0.00 0.00 0.00 85 1008.2
20260507014421 80 142 3.0 5.0 0.00 0.00 0.00 85 1007.7
20260507013918 80 147 2.0 5.0 0.00 0.00 0.00 85 1007.7
20260507013641 80 146 3.0 5.0 0.00 0.00 0.00 85 1007.7
20260507012917 80 142 3.0 5.0 0.00 0.00 0.00 85 1007.6
20260507012420 80 141 3.0 5.0 0.00 0.00 0.00 85 1007.6
20260507011910 80 140 3.0 5.0 0.00 0.00 0.00 85 1007.6
20260507011405 80 138 3.0 4.0 0.00 0.00 0.00 85 1007.6
20260507010407 81 149 2.0 4.0 0.00 0.00 0.00 85 1007.6
20260507005903 81 149 2.0 6.0 0.00 0.00 0.00 85 1007.3
20260507005400 81 148 2.0 6.0 0.00 0.00 0.00 85 1007.3
20260507005120 81 148 3.0 7.0 0.00 0.00 0.00 85 1007.3
20260507004359 82 134 4.0 7.0 0.00 0.00 0.00 85 1007.2
20260507003858 82 151 4.0 7.0 0.00 0.00 0.00 85 1007.2
20260507003357 82 155 3.0 7.0 0.00 0.00 0.00 85 1007.2
20260507002858 82 147 3.0 5.0 0.00 0.00 0.00 85 1007.2
20260507002357 82 145 3.0 7.0 0.00 0.00 0.00 85 1007.2
20260507001857 82 151 3.0 8.0 0.00 0.00 0.00 85 1007.2
20260507001350 82 149 3.0 6.0 0.00 0.00 0.00 85 1006.8
20260507001109 82 120 4.0 8.0 0.00 0.00 0.00 85 1006.8
20260507000336 83 116 4.0 10.0 0.00 0.00 0.00 85 1006.8
20260506235824 83 149 5.0 10.0 0.00 0.00 0.00 85 1006.6
20260506235323 83 155 5.0 9.0 0.00 0.00 0.00 85 1006.6
20260506235035 83 117 6.0 12.0 0.00 0.00 0.00 85 1006.6
20260506234304 83 139 7.0 12.0 0.00 0.00 0.00 85 1006.6
20260506233755 83 139 7.0 11.0 0.00 0.00 0.00 85 1006.6
20260506233242 83 151 7.0 12.0 0.00 0.00 0.00 85 1006.6
20260506232731 83 158 7.0 12.0 0.00 0.00 0.00 85 1006.5
20260506232226 83 164 7.0 14.0 0.00 0.00 0.00 85 1006.5
20260506231717 83 90 8.0 14.0 0.00 0.00 0.00 85 1006.5
20260506231419 83 162 8.0 14.0 0.00 0.00 0.00 85 1006.5
20260506230658 83 90 7.0 13.0 0.00 0.00 0.00 85 1006.5
20260506230157 83 154 6.0 13.0 0.00 0.00 0.00 85 1006.5
20260506225702 83 151 6.0 11.0 0.00 0.00 0.00 85 1006.6
20260506225203 83 141 6.0 11.0 0.00 0.00 0.00 84 1006.6
20260506224658 83 90 7.0 12.0 0.00 0.00 0.00 85 1006.6
20260506224157 83 120 8.0 13.0 0.00 0.00 0.00 84 1006.3
20260506223658 83 136 7.0 14.0 0.00 0.00 0.00 85 1006.3
20260506223158 83 130 8.0 14.0 0.00 0.00 0.00 85 1006.3
20260506222656 83 90 8.0 16.0 0.00 0.00 0.00 84 1006.4
20260506222157 83 153 9.0 16.0 0.00 0.00 0.00 84 1006.4
20260506221658 83 155 9.0 17.0 0.00 0.00 0.00 84 1006.4
20260506221155 83 141 11.0 17.0 0.00 0.00 0.00 84 1006.5
20260506220649 83 143 10.0 17.0 0.00 0.00 0.00 84 1006.5
20260506220151 83 123 10.0 16.0 0.00 0.00 0.00 84 1006.5
20260506215648 83 151 11.0 18.0 0.00 0.00 0.00 84 1006.5
20260506215146 83 90 10.0 18.0 0.00 0.00 0.00 84 1006.5
20260506214646 83 90 10.0 18.0 0.00 0.00 0.00 84 1006.5
20260506214148 83 139 11.0 18.0 0.00 0.00 0.00 84 1006.6
20260506213647 84 161 10.0 18.0 0.00 0.00 0.00 84 1006.6
20260506213146 84 141 10.0 17.0 0.00 0.00 0.00 84 1006.6
20260506212648 85 143 10.0 17.0 0.00 0.00 0.00 84 1006.4
20260506212146 85 166 9.0 15.0 0.00 0.00 0.00 84 1006.4
20260506211647 85 159 8.0 14.0 0.00 0.00 0.00 84 1006.4
20260506211409 85 154 8.0 13.0 0.00 0.00 0.00 84 1006.5
20260506210916 85 90 9.0 14.0 0.00 0.00 0.00 84 1006.5
20260506210145 85 142 8.0 14.0 0.00 0.00 0.00 84 1006.5
20260506205645 85 90 5.0 13.0 0.00 0.00 0.00 84 1006.6
20260506205143 85 176 3.0 8.0 0.00 0.00 0.00 84 1006.6
20260506204916 85 213 3.0 5.0 0.00 0.00 0.00 84 1006.6
20260506204147 85 234 3.0 5.0 0.00 0.00 0.00 84 1006.6
20260506203913 86 226 3.0 5.0 0.00 0.00 0.00 85 1006.6
20260506203405 86 245 3.0 5.0 0.00 0.00 0.00 85 1006.6
20260506202643 86 247 3.0 8.0 0.00 0.00 0.00 85 1006.6
20260506202144 86 246 4.0 8.0 0.00 0.00 0.00 85 1006.6
20260506201642 86 220 5.0 9.0 0.00 0.00 0.00 85 1006.6
20260506201143 86 202 6.0 9.0 0.00 0.00 0.00 85 1006.8
20260506200642 85 207 5.0 14.0 0.00 0.00 0.00 85 1006.8
20260506200144 85 213 6.0 14.0 0.00 0.00 0.00 86 1006.8
20260506195642 85 160 7.0 14.0 0.00 0.00 0.00 86 1007.2
20260506194633 85 128 9.0 15.0 0.00 0.00 0.00 86 1007.2
20260506194124 85 199 9.0 15.0 0.00 0.00 0.00 86 1007.3
20260506193613 85 90 10.0 18.0 0.00 0.00 0.00 86 1007.3
20260506193108 85 181 11.0 18.0 0.00 0.00 0.00 87 1007.3
20260506192557 84 90 10.0 17.0 0.00 0.00 0.00 87 1007.6
20260506191542 83 90 10.0 15.0 0.00 0.00 0.00 87 1007.6
20260506191031 83 90 9.0 15.0 0.00 0.00 0.00 87 1007.7
20260506190739 83 175 10.0 16.0 0.00 0.00 0.00 87 1007.7
20260506190011 83 90 10.0 16.0 0.00 0.00 0.00 87 1007.7
20260506185502 83 163 10.0 17.0 0.00 0.00 0.00 88 1007.9
20260506185208 83 170 9.0 17.0 0.00 0.00 0.00 88 1007.9
20260506184439 82 153 9.0 16.0 0.00 0.00 0.00 88 1008.2
20260506183931 82 90 9.0 16.0 0.00 0.00 0.00 88 1008.2
20260506183423 81 121 9.0 16.0 0.00 0.00 0.00 88 1008.2
20260506182922 81 131 9.0 16.0 0.00 0.00 0.00 88 1008.3
20260506182423 81 149 8.0 13.0 0.00 0.00 0.00 88 1008.3
20260506181924 81 90 8.0 14.0 0.00 0.00 0.00 88 1008.3
20260506181423 81 90 8.0 14.0 0.00 0.00 0.00 88 1008.4
20260506180923 80 153 8.0 13.0 0.00 0.00 0.00 88 1008.4
20260506180423 80 150 8.0 13.0 0.00 0.00 0.00 88 1008.4
20260506180153 80 147 9.0 13.0 0.00 0.00 0.00 88 1008.6
20260506175424 80 153 8.0 13.0 0.00 0.00 0.00 88 1008.6
20260506174928 80 149 8.0 13.0 0.00 0.00 0.00 88 1008.6
20260506174423 80 168 8.0 13.0 0.00 0.00 0.00 88 1008.6
20260506173917 80 137 7.0 13.0 0.00 0.00 0.00 89 1008.6
20260506173412 80 132 6.0 12.0 0.00 0.00 0.00 89 1008.6
20260506172907 80 90 6.0 11.0 0.00 0.00 0.00 89 1008.5
20260506172412 80 149 6.0 11.0 0.00 0.00 0.00 89 1008.5
20260506171906 80 157 5.0 11.0 0.00 0.00 0.00 89 1008.5
20260506171412 80 90 7.0 11.0 0.00 0.00 0.00 89 1008.4
20260506170907 80 162 7.0 11.0 0.00 0.00 0.00 89 1008.4
20260506170406 80 129 9.0 0.0 0.00 0.00 0.00 89 1008.4
20260506165325 80 164 8.0 13.0 0.00 0.00 0.00 89 1008.4
20260506164825 80 145 9.0 16.0 0.00 0.00 0.00 89 1008.4